Location: Ermatingen
(47.6706°N, 9.0857°E)
Time: 09:50:34
(UTC+00:00)

Cosmos 1428 Rocket - Pass Details

Date: 07 December 2021
Orbit: 949 x 987 km, 82.9° (Epoch: 23 January)

Event Time Altitude Azimuth Distance (km) Brightness Sun altitude
Rises 18:01:50 0° 340° (NNW) 3,638 7.7 -24.2°
Reaches altitude 10° 18:04:54 10° 325° (NW) 2,691 7.1 -24.7°
Maximum altitude 18:09:20 21° 278° (W) 1,993 6.9 -25.5°
Drops below altitude 10° 18:13:47 10° 232° (SW) 2,693 7.5 -26.2°
Sets 18:16:53 0° 217° (SW) 3,642 8.1 -26.7°
